This demonstration page uses our WeatherBlox Daily Observations layout. Learn more.

Left ArrowRight Arrow

Hourly Observations for December 23, 2016

Temp ( °F °C ) Dew Point ( °F °C ) Humidity (%) Winds ( mph kmh ) Pressure ( in mb ) Visibility ( mi km ) Precip ( " mm )
12:14 am 00:14 Clear 27 -3 25 -4 93 93 S 5 7 30.48 1032 7 11 N/A
12:34 am 00:34 Clear 27 -3 25 -4 93 93 S 5 7 30.48 1032 7 11 N/A
12:54 am 00:54 Clear 27 -3 25 -4 93 93 S 3 6 30.45 1031 7 11 N/A
1:14 am 01:14 Clear 27 -3 25 -4 93 93 SSE 5 7 30.45 1031 5 8 N/A
1:34 am 01:34 Clear 27 -3 25 -4 93 93 S 6 9 30.45 1031 5 8 N/A
1:54 am 01:54 Clear 27 -3 25 -4 93 93 S 6 9 30.45 1031 5 8 N/A
2:14 am 02:14 Clear 27 -3 25 -4 93 93 S 6 9 30.48 1032 5 8 N/A
2:34 am 02:34 Clear 27 -3 27 -3 100 100 S 6 9 30.45 1031 5 8 N/A
2:54 am 02:54 Clear 28 -2 27 -3 93 93 S 5 7 30.42 1030 5 8 N/A
3:14 am 03:14 Clear 27 -3 25 -4 93 93 SSE 5 7 30.45 1031 5 8 N/A
3:34 am 03:34 Clear 27 -3 27 -3 100 100 SSE 5 7 30.45 1031 7 11 N/A
3:54 am 03:54 Clear 27 -3 25 -4 93 93 SSE 5 7 30.45 1031 7 11 N/A
4:14 am 04:14 Clear 27 -3 25 -4 93 93 SSE 3 6 30.45 1031 7 11 N/A
4:34 am 04:34 Clear 27 -3 25 -4 93 93 SSE 5 7 30.45 1031 5 8 N/A
4:54 am 04:54 Clear 28 -2 27 -3 93 93 SSE 3 6 30.42 1030 5 8 N/A
5:14 am 05:14 Clear 28 -2 27 -3 93 93 SSE 5 7 30.42 1030 5 8 N/A
5:34 am 05:34 Clear 28 -2 27 -3 93 93 N N/A 30.42 1030 7 11 N/A
5:54 am 05:54 Clear 28 -2 27 -3 93 93 S 3 6 30.42 1030 7 11 N/A
6:13 am 06:13 Clear 30 -1 27 -3 86 86 SSE 6 9 30.42 1030 7 11 N/A
6:34 am 06:34 Clear 30 -1 27 -3 86 86 S 8 13 30.42 1030 7 11 N/A
6:54 am 06:54 Clear 30 -1 27 -3 86 86 S 7 11 30.42 1030 7 11 N/A
7:14 am 07:14 Clear 30 -1 27 -3 86 86 S 5 7 30.42 1030 7 11 N/A
7:34 am 07:34 Clear 30 -1 28 -2 93 93 S 5 7 30.42 1030 7 11 N/A
7:54 am 07:54 Partly Cloudy 30 -1 28 -2 93 93 SSE 6 9 30.42 1030 7 11 N/A
8:14 am 08:14 Mostly Cloudy 30 -1 28 -2 93 93 S 3 6 30.42 1030 7 11 N/A
8:34 am 08:34 Partly Cloudy 30 -1 28 -2 93 93 SSE 3 6 30.42 1030 7 11 N/A
8:54 am 08:54 Sunny 30 -1 28 -2 93 93 SE 6 9 30.42 1030 5 8 N/A
9:14 am 09:14 Sunny 32 undefined 28 -2 87 87 S 6 9 30.42 1030 5 8 N/A
9:34 am 09:34 Sunny 32 undefined 28 -2 87 87 SSE 7 11 30.42 1030 7 11 N/A
9:54 am 09:54 Sunny 32 undefined 28 -2 87 87 SSE 8 13 30.42 1030 7 11 N/A
10:14 am 10:14 Sunny 32 undefined 28 -2 87 87 SSE 7 11 30.39 1029 7 11 N/A
10:34 am 10:34 Sunny 32 undefined 28 -2 87 87 SE 8 13 30.39 1029 10 16 N/A
10:54 am 10:54 Partly Cloudy 32 undefined 28 -2 87 87 S 7 11 30.36 1028 10 16 N/A
11:14 am 11:14 Mostly Cloudy 34 1 28 -2 81 81 SSE 8 13 30.36 1028 10 16 N/A
11:34 am 11:34 Partly Cloudy 34 1 28 -2 81 81 SSE 7 11 30.36 1028 10 16 N/A
11:54 am 11:54 Partly Cloudy 34 1 28 -2 81 81 S 9 15 30.36 1028 10 16 N/A
12:14 pm 12:14 Mostly Cloudy 34 1 28 -2 81 81 SSE 10 17 30.33 1027 10 16 N/A
12:34 pm 12:34 Cloudy 34 1 30 -1 87 87 SSE 7 11 30.33 1027 10 16 N/A
12:54 pm 12:54 Cloudy 34 1 30 -1 87 87 SSE 7 11 30.30 1026 10 16 N/A
1:14 pm 13:14 Cloudy 34 1 30 -1 87 87 SSE 6 9 30.27 1025 10 16 N/A
1:34 pm 13:34 Cloudy 34 1 30 -1 87 87 S 7 11 30.27 1025 10 16 N/A
1:54 pm 13:54 Mostly Cloudy 34 1 30 -1 87 87 SSE 7 11 30.27 1025 10 16 N/A
2:14 pm 14:14 Cloudy 36 2 30 -1 81 81 SE 6 9 30.24 1024 10 16 N/A
2:34 pm 14:34 Cloudy 36 2 30 -1 81 81 SSE 8 13 30.24 1024 10 16 N/A
2:54 pm 14:54 Cloudy 36 2 30 -1 81 81 SE 6 9 30.24 1024 10 16 N/A
3:14 pm 15:14 Cloudy 36 2 30 -1 81 81 SE 9 15 30.24 1024 10 16 N/A
3:34 pm 15:34 Cloudy 36 2 30 -1 81 81 SE 9 15 30.24 1024 10 16 N/A
3:54 pm 15:54 Cloudy 36 2 30 -1 81 81 SE 10 17 30.21 1023 10 16 N/A
4:14 pm 16:14 Cloudy 36 2 30 -1 81 81 SE 10 17 30.18 1022 10 16 N/A
4:34 pm 16:34 Cloudy 36 2 30 -1 81 81 SSE 7 11 30.21 1023 10 16 N/A
4:54 pm 16:54 Cloudy 36 2 30 -1 81 81 SSW 5 7 30.21 1023 10 16 N/A
5:14 pm 17:14 Cloudy 36 2 30 -1 81 81 S 7 11 30.21 1023 10 16 N/A
5:34 pm 17:34 Cloudy 36 2 30 -1 81 81 SSE 12 19 30.15 1021 10 16 N/A
5:54 pm 17:54 Cloudy 36 2 30 -1 81 81 SSE 9 15 30.15 1021 10 16 N/A
6:14 pm 18:14 Cloudy 36 2 30 -1 81 81 S 10 17 30.15 1021 10 16 N/A
6:34 pm 18:34 Cloudy 36 2 30 -1 81 81 SSE 7 11 30.15 1021 10 16 N/A
6:54 pm 18:54 Cloudy 36 2 30 -1 81 81 SSE 10 17 30.12 1020 10 16 N/A
7:13 pm 19:13 Cloudy 36 2 30 -1 81 81 S 10 17 30.12 1020 10 16 N/A
7:34 pm 19:34 Cloudy 36 2 30 -1 81 81 S 8 13 30.12 1020 10 16 N/A
7:54 pm 19:54 Cloudy 36 2 30 -1 81 81 S 6 9 30.12 1020 10 16 N/A
8:13 pm 20:13 Cloudy 36 2 30 -1 81 81 SSW 7 11 30.15 1021 10 16 N/A
8:34 pm 20:34 Cloudy 36 2 32 undefined 87 87 SSE 10 17 30.12 1020 7 11 N/A
8:53 pm 20:53 Cloudy 36 2 32 undefined 87 87 S 7 11 30.12 1020 5 8 N/A
9:14 pm 21:14 Cloudy 36 2 32 undefined 87 87 S 10 17 30.09 1019 10 16 N/A
9:34 pm 21:34 Cloudy 36 2 32 undefined 87 87 S 9 15 30.12 1020 7 11 N/A
9:53 pm 21:53 Cloudy 36 2 32 undefined 87 87 S 8 13 30.12 1020 7 11 N/A
10:14 pm 22:14 Cloudy 36 2 34 1 93 93 S 12 19 30.09 1019 5 8 N/A
10:34 pm 22:34 Cloudy 36 2 34 1 93 93 S 13 20 30.09 1019 5 8 N/A
10:53 pm 22:53 Cloudy 36 2 34 1 93 93 S 13 20 30.09 1019 7 11 N/A
11:14 pm 23:14 Cloudy 36 2 34 1 93 93 S 13 20 30.06 1018 7 11 N/A
11:54 pm 23:54 Cloudy 37 3 36 2 93 93 S 13 20 30.03 1017 7 11 N/A

Powered by AerisWeather